{"data":{"norad_id":62181,"intl_designator":"2024-225U","name":"STARLINK-32602","alt_names":[],"object_type":"PAYLOAD","status":"ACTIVE","operator":null,"country":"US","launch_date":"2024-11-30","launch_site_code":"AFWTR","launch_vehicle":null,"mission":null,"orbit_class":"UNKNOWN","rcs_meters":null,"size_class":null,"mass_kg":null,"dimensions":null,"purposes":["comms"],"wikipedia_slug":null,"has_3d_model":false,"image_url":null,"decayed_at":null,"tle_current":{"epoch":"2026-05-25T04:33:40.758912Z","epoch_age_seconds":65897,"freshness":"FRESH","line1":"1 62181U 24225U   26145.19005508  .00003182  00000+0  27429-3 0  9999","line2":"2 62181  70.0018 321.5804 0002400 271.9596  88.1289 14.98337768 81588","mean_motion":14.98337768,"eccentricity":0.00024,"inclination_deg":70.0018,"raan_deg":321.5804,"arg_perigee_deg":271.9596,"mean_anomaly_deg":88.1289,"bstar":0.00027429,"rev_number":8158,"period_min":96.106500867433,"perigee_km":570.36382862039,"apogee_km":573.69990967758,"semimajor_km":6950.168869149,"source":"CELESTRAK","updated_at":"2026-05-25T13:38:19.604459Z"}}}